Wind_Speed
6 6 6 6 6 5 5 5 5 5 4 4 4 4 4 4 3 3 3 3 3 4 4 5 5 5 5 5 5 5 5 5 5 4 4 4 4 4 4 4 5 5 5 5 5 5 5 5 5
7 7 8 7 7 6 6 6 6 6 5 5 5 5 5 4 4 4 4 4 4 4 5 5 5 5 6 6 6 6 7 7 6 6 6 6 6 6 6 6 6 6 6 6 6 6 6 6 6
7 8 9 8 8 7 7 6 6 6 5 5 5 5 4 4 4 4 4 5 5 5 5 5 6 6 6 7 7 8 8 8 8 7 7 7 8 8 7 7 7 6 7 7 7 7 7 6 7
8 8 9 8 8 8 7 7 7 6 6 6 6 6 5 5 5 5 5 5 6 6 5 5 6 7 7 7 8 9 9 9 9 9 9 9 9 9 8 8 8 7 7 8 8 8 8 8 7
8 8 8 8 8 8 7 6 7 6 6 6 6 5 5 5 5 6 5 5 6 6 6 6 6 6 6 7 8 9 9 9 9 9 9 9 9 9 9 8 8 8 9 9 8 8 8 8 8
7 7 8 8 8 8 7 7 7 7 6 5 6 5 5 5 5 5 5 6 6 6 7 7 7 7 7 7 8 9 9 8 8 8 8 9 9 9 8 8 9 9 9 9 8 8 8 8 9
8 7 7 7 7 7 7 7 7 7 7 6 6 6 6 6 6 6 6 6 6 7 7 7 7 7 8 8 8 6 5 5 6 7 7 8 8 8 8 9 9 9 9 9 9 9 9 8 8
8 7 7 7 7 7 7 7 7 7 6 6 6 6 6 6 7 6 7 7 7 7 7 7 7 7 7 7 7 6 4 4 4 6 7 7 8 8 8 8 9 9 9 9 10 9 10 9 9
7 7 8 8 8 8 8 7 7 7 7 7 7 7 7 7 7 6 7 8 8 8 8 7 7 7 7 7 7 7 5 5 5 6 7 7 8 8 8 8 8 9 9 9 9 10 10 9 9
7 7 7 8 8 8 8 8 8 7 8 8 8 7 7 7 7 7 8 8 8 8 8 7 7 7 7 8 7 7 7 6 7 7 7 8 8 9 9 9 9 9 9 9 9 9 10 10 10
7 8 8 8 8 8 9 9 9 8 8 8 7 7 7 7 8 9 9 8 8 8 8 8 8 8 7 7 8 8 8 8 9 9 8 8 9 9 10 10 10 9 9 10 10 10 10 10 11
9 8 8 9 9 8 8 9 9 9 9 8 8 8 9 9 9 9 9 9 8 8 8 9 9 8 8 8 9 9 9 9 9 9 9 9 9 10 10 10 10 10 10 11 11 11 11 11 11
9 9 9 9 9 9 9 9 9 9 9 9 9 9 9 10 10 10 9 9 9 9 9 9 10 10 9 9 10 9 9 9 10 10 10 10 10 11 11 11 11 11 12 12 12 12 12 12 12
9 9 9 9 9 9 9 9 10 9 9 9 10 9 9 9 10 10 10 10 10 10 10 10 10 11 10 10 11 11 11 10 10 11 11 11 11 12 12 12 13 13 13 13 13 13 14 14 14
10 10 10 10 10 9 9 10 10 10 9 9 10 10 10 10 10 10 10 10 11 11 11 11 11 12 12 12 12 12 12 12 12 12 12 12 12 13 13 14 14 14 14 14 14 14 14 15 15
10 10 10 10 10 10 10 10 11 10 10 9 9 10 10 11 11 11 11 12 12 12 12 12 12 13 13 13 13 13 13 13 13 13 13 13 13 13 14 15 15 15 15 15 15 15 15 15 15
10 10 9 9 9 9 10 10 10 10 10 10 10 10 11 11 12 11 11 12 12 12 12 13 13 13 14 14 14 14 13 13 13 14 14 14 14 14 15 15 15 15 15 15 16 16 16 16 16
10 10 10 9 10 10 10 10 11 11 10 11 11 11 12 12 12 12 12 12 12 12 12 13 14 14 14 14 14 14 15 15 14 15 15 15 15 15 15 16 16 15 15 15 15 16 16 16 16
10 10 10 10 10 10 10 10 11 11 11 11 11 12 12 11 12 12 12 12 12 12 13 14 14 14 14 14 14 14 15 15 15 15 15 15 15 16 16 16 16 16 16 16 16 17 17 17 17
10 10 10 10 10 10 10 10 10 11 11 11 11 11 12 11 12 12 13 13 13 13 13 14 14 14 14 14 14 14 15 14 15 16 15 16 16 16 16 16 16 16 16 16 16 16 17 18 18
10 11 10 10 11 11 11 10 11 11 11 12 12 12 13 12 12 12 12 13 13 13 13 14 14 14 14 14 15 15 15 15 16 16 16 16 16 16 17 17 17 17 17 17 17 17 17 17 18
11 11 12 12 12 12 12 11 10 11 11 12 12 12 12 13 13 13 12 13 13 13 14 14 14 14 14 15 15 15 16 16 16 17 16 17 17 17 18 18 18 18 18 18 18 19 19 19 19
12 12 12 12 13 12 12 12 11 11 12 12 12 12 13 13 13 13 13 13 13 13 14 14 14 14 15 15 16 16 16 16 17 17 18 18 19 19 19 19 19 19 19 19 20 20 20 20 21
12 12 12 13 13 13 13 13 12 12 13 12 12 12 12 13 13 13 13 14 14 14 14 14 14 15 15 16 16 17 16 17 17 17 18 19 19 20 20 20 20 20 20 20 21 21 21 21 21
13 13 13 14 14 14 14 14 13 12 12 12 12 12 12 12 13 13 14 15 14 13 13 14 14 15 15 15 16 16 16 17 17 18 18 19 20 20 20 21 20 20 21 21 21 21 21 21 22
14 14 14 15 15 15 14 14 12 13 12 12 13 13 12 12 13 13 13 13 13 13 13 14 15 15 15 15 15 16 17 17 18 18 19 20 20 20 21 21 20 20 20 21 21 22 22 22 22
15 15 15 16 16 16 15 14 12 13 13 13 13 13 13 13 13 13 13 14 14 14 14 15 16 17 16 16 16 17 18 19 19 20 19 19 20 20 21 21 21 21 21 21 21 21 21 21 21
15 15 15 16 17 17 16 15 13 13 14 14 13 13 13 13 14 14 14 15 16 15 16 17 17 18 18 18 18 18 19 20 20 21 20 20 20 20 21 21 21 21 21 21 21 21 21 20 21
16 16 16 17 18 18 17 15 14 14 14 14 13 13 13 14 14 15 15 16 17 16 17 17 17 18 18 18 18 19 20 21 21 22 22 21 21 20 20 21 21 22 22 21 21 21 21 20 21
17 17 17 18 19 19 19 16 15 15 15 15 14 14 14 15 15 15 16 16 17 17 18 18 18 18 18 19 19 20 21 21 22 23 23 22 21 21 21 21 22 22 22 22 21 21 21 21 21
Wind_Direction
247 246 249 254 259 259 261 254 246 245 238 240 243 248 248 251 254 253 259 253 256 259 258 269 272 273 280 285 288 288 288 288 284 278 272 275 279 283 288 293 285 281 285 289 292 292 297 294 284
251 251 252 253 255 256 257 257 253 252 254 257 254 256 257 256 260 262 261 258 263 268 266 273 275 276 281 284 285 284 282 279 276 267 265 271 277 281 285 286 282 279 284 286 288 292 292 288 278
249 251 252 257 260 261 258 255 254 253 259 262 259 258 260 258 258 267 264 261 262 269 272 275 275 279 285 288 290 290 286 279 271 265 264 268 273 277 279 279 276 275 279 281 284 285 287 289 280
251 252 255 260 264 264 258 255 256 257 259 259 260 262 262 261 261 268 267 261 263 266 271 279 275 277 284 289 289 289 286 278 266 261 263 264 269 272 274 273 273 273 276 280 282 281 283 284 281
254 256 260 262 263 259 255 252 252 258 265 259 255 262 262 259 262 268 270 273 271 269 274 278 274 278 281 284 289 289 287 278 264 259 263 266 269 271 272 272 272 271 272 275 277 277 278 280 281
264 262 260 259 259 258 254 255 258 262 263 260 255 257 259 260 265 263 271 275 274 275 278 279 276 282 287 290 292 293 290 277 262 259 261 266 269 270 271 270 271 271 270 273 275 272 274 279 281
264 265 264 262 260 260 259 260 259 258 259 257 254 257 255 253 256 262 270 271 275 277 279 279 278 281 287 291 298 307 303 280 264 261 260 263 265 270 269 270 270 270 269 271 272 272 273 272 275
265 266 266 262 258 259 260 260 255 257 259 260 259 260 256 256 261 265 270 270 272 276 278 278 280 283 287 291 296 305 296 275 266 264 261 260 264 268 268 270 269 268 270 270 269 270 272 270 271
266 264 264 263 259 257 258 259 254 253 254 255 255 261 263 267 268 267 271 270 268 270 274 275 279 280 285 289 290 292 293 280 277 270 265 268 269 269 269 269 267 269 269 272 272 269 269 268 270
267 267 265 260 256 255 256 256 259 263 263 262 259 261 261 264 264 265 269 270 266 266 268 270 275 278 282 286 286 285 286 285 283 280 275 275 273 270 269 268 270 270 270 271 270 269 269 268 269
268 268 264 258 256 257 256 256 259 263 266 264 265 263 263 265 261 267 271 270 267 267 269 271 275 279 281 285 284 282 283 285 285 285 284 279 274 271 269 268 269 269 271 270 268 269 270 270 271
269 269 267 260 256 256 258 257 260 262 266 266 267 266 268 270 267 265 267 268 269 270 269 270 271 277 282 286 285 284 285 285 282 283 284 281 275 271 268 267 267 268 268 267 267 269 270 270 271
266 268 268 265 257 253 256 257 258 262 267 270 268 267 271 268 267 269 268 268 271 275 272 272 273 276 280 285 284 284 285 282 278 281 280 277 275 274 272 270 269 269 267 267 268 268 266 267 269
267 267 269 268 262 257 256 256 260 264 266 268 268 269 270 268 266 269 269 268 270 274 273 271 273 277 277 281 284 284 283 278 277 280 279 276 275 276 273 271 270 268 268 269 269 267 269 267 269
268 265 265 264 263 259 256 256 259 261 264 265 265 267 267 267 267 266 266 268 269 271 273 277 276 278 279 281 281 281 278 276 276 278 278 279 279 278 274 273 274 271 268 269 269 269 268 267 267
267 265 262 261 261 256 253 255 258 262 264 265 265 266 266 267 266 265 265 266 269 271 272 275 277 278 279 280 280 278 276 277 277 277 278 278 280 280 276 274 274 273 271 270 267 267 268 268 268
259 263 265 259 257 253 254 257 260 263 265 265 267 270 269 267 267 265 265 267 269 271 274 275 275 278 280 280 281 281 276 275 275 275 276 276 278 280 279 277 275 272 271 271 269 267 268 269 268
259 262 263 261 256 253 253 256 262 267 266 267 268 271 272 269 266 267 267 270 271 273 275 276 276 276 277 278 279 279 276 275 273 275 276 278 280 280 280 279 275 272 272 272 271 270 268 267 267
259 260 257 257 258 258 257 259 262 266 270 272 273 274 275 271 270 270 271 273 276 276 276 276 276 276 276 278 279 281 281 279 276 276 277 278 280 280 280 279 275 271 270 271 270 270 269 267 267
259 258 257 255 260 264 264 263 265 266 271 275 275 276 278 275 273 272 273 274 276 277 276 276 277 278 278 279 280 280 281 283 283 280 279 280 280 279 279 277 275 275 273 271 271 270 270 269 268
259 260 259 257 258 263 265 264 265 268 269 272 274 275 279 277 276 273 275 275 275 277 279 279 279 279 279 281 282 282 283 283 282 280 280 282 281 278 277 276 273 273 273 272 271 271 271 271 271
260 262 261 262 260 261 262 263 264 269 270 273 275 277 278 279 277 273 272 273 275 278 280 282 281 282 283 284 285 286 285 285 282 281 279 283 283 281 277 275 273 272 272 272 273 272 270 271 272
262 260 259 262 263 265 266 267 263 266 271 276 277 278 278 277 276 274 273 275 277 280 283 282 283 284 284 285 287 286 287 287 286 286 284 285 286 284 279 276 275 274 273 273 273 274 273 272 272
260 257 259 263 264 266 268 270 269 269 276 277 278 279 278 275 275 274 273 274 276 281 282 283 284 284 283 284 285 286 287 289 289 289 288 288 288 286 281 277 276 275 275 274 274 274 274 273 272
259 259 262 264 266 269 270 273 276 276 279 278 278 278 279 277 275 273 275 276 277 279 282 286 287 288 287 286 286 285 286 288 290 292 292 291 291 289 285 280 279 278 276 276 276 275 274 272 270
260 262 266 270 271 271 272 274 276 279 280 277 276 277 277 277 277 274 276 279 282 283 284 287 289 289 287 286 285 284 285 287 289 292 293 292 291 287 284 282 280 279 279 278 277 277 276 273 270
261 262 268 272 274 273 273 272 273 274 277 277 276 276 276 276 277 276 278 281 285 286 285 287 288 287 285 283 282 284 286 287 289 291 291 291 291 288 285 282 279 278 278 278 278 277 277 273 270
261 262 266 268 272 275 274 274 276 274 275 274 275 277 277 277 277 277 278 281 282 283 286 286 287 286 284 283 285 288 290 290 289 290 289 290 290 289 287 283 280 280 279 279 277 277 276 273 271
262 261 264 266 269 273 276 277 278 277 276 274 275 276 277 278 277 277 277 279 280 280 284 286 287 287 287 287 289 290 291 291 290 290 289 288 289 289 286 283 282 282 280 278 277 277 275 273 272
262 261 262 265 269 272 275 275 273 272 274 275 276 276 278 279 279 278 277 280 280 280 284 286 287 288 288 288 289 290 290 290 291 291 288 288 289 287 285 284 282 281 279 277 277 277 276 275 273
Height
5853 5853 5854 5855 5856 5856 5855 5856 5856 5856 5857 5857 5857 5857 5858 5858 5859 5862 5860 5859 5860 5860 5860 5861 5860 5860 5860 5860 5860 5860 5859 5859 5860 5860 5861 5861 5862 5863 5863 5863 5864 5864 5864 5865 5865 5865 5865 5865 5865
5852 5853 5854 5855 5854 5855 5856 5855 5855 5855 5856 5856 5856 5856 5857 5857 5857 5858 5858 5859 5859 5859 5859 5860 5859 5859 5859 5859 5858 5858 5858 5858 5858 5859 5859 5860 5861 5861 5862 5862 5862 5863 5863 5864 5864 5864 5864 5864 5865
5851 5852 5853 5853 5853 5854 5855 5854 5854 5854 5855 5855 5855 5855 5856 5856 5856 5857 5857 5858 5858 5858 5858 5858 5858 5858 5858 5857 5857 5856 5856 5856 5856 5857 5858 5859 5859 5860 5860 5861 5861 5861 5862 5862 5862 5863 5863 5863 5863
5850 5851 5852 5852 5852 5853 5853 5853 5854 5854 5854 5854 5855 5855 5855 5855 5856 5856 5856 5856 5857 5857 5857 5857 5857 5856 5856 5856 5855 5854 5852 5852 5853 5855 5856 5857 5858 5859 5859 5859 5860 5860 5860 5861 5861 5861 5861 5862 5861
5849 5850 5850 5850 5851 5851 5852 5852 5853 5853 5853 5853 5853 5853 5854 5854 5854 5855 5855 5855 5855 5855 5855 5855 5855 5855 5855 5854 5853 5851 5849 5849 5850 5852 5854 5855 5856 5857 5857 5857 5858 5858 5859 5859 5859 5860 5860 5860 5860
5849 5849 5849 5849 5850 5850 5850 5851 5851 5851 5851 5852 5852 5852 5853 5853 5853 5853 5854 5854 5854 5854 5854 5854 5854 5854 5853 5853 5852 5849 5846 5846 5848 5850 5852 5853 5854 5855 5855 5856 5856 5857 5857 5857 5858 5858 5858 5858 5858
5848 5848 5848 5848 5848 5848 5849 5849 5850 5850 5850 5851 5851 5851 5851 5852 5852 5852 5853 5853 5853 5853 5853 5853 5853 5853 5852 5852 5851 5847 5845 5845 5847 5849 5850 5851 5852 5853 5853 5854 5854 5855 5855 5855 5856 5856 5856 5857 5857
5846 5847 5846 5847 5847 5847 5848 5848 5848 5849 5849 5850 5850 5850 5850 5851 5851 5851 5852 5852 5852 5852 5852 5852 5851 5851 5851 5850 5850 5848 5846 5846 5847 5848 5849 5849 5850 5851 5852 5852 5852 5853 5853 5854 5854 5854 5854 5854 5855
5844 5846 5845 5845 5846 5846 5846 5847 5847 5847 5848 5848 5848 5849 5849 5849 5850 5850 5850 5850 5850 5851 5850 5850 5850 5850 5850 5849 5849 5848 5847 5847 5847 5847 5848 5848 5849 5850 5850 5850 5851 5851 5851 5851 5852 5852 5852 5852 5853
5843 5843 5844 5844 5844 5844 5845 5845 5845 5846 5846 5846 5847 5847 5847 5848 5848 5848 5849 5849 5849 5849 5849 5849 5849 5848 5848 5848 5848 5848 5847 5847 5847 5847 5847 5847 5847 5848 5848 5848 5848 5849 5849 5849 5850 5850 5850 5850 5850
5841 5842 5842 5842 5842 5842 5843 5843 5844 5844 5845 5845 5845 5845 5846 5846 5846 5847 5847 5847 5847 5847 5847 5847 5847 5847 5847 5847 5846 5846 5846 5846 5846 5846 5846 5845 5846 5846 5846 5846 5846 5846 5847 5847 5847 5847 5848 5848 5848
5839 5839 5840 5840 5840 5841 5841 5842 5842 5842 5843 5843 5843 5843 5844 5844 5844 5845 5845 5845 5845 5845 5845 5845 5845 5845 5845 5845 5845 5844 5844 5844 5844 5844 5844 5844 5844 5844 5844 5844 5844 5844 5844 5845 5845 5845 5845 5845 5845
5837 5838 5838 5838 5838 5839 5839 5840 5840 5841 5841 5841 5841 5842 5842 5842 5842 5842 5842 5843 5843 5843 5843 5843 5843 5843 5843 5843 5843 5843 5842 5842 5842 5842 5842 5842 5842 5842 5842 5842 5842 5842 5842 5842 5842 5842 5842 5842 5842
5835 5835 5836 5836 5836 5836 5837 5838 5839 5839 5839 5839 5839 5840 5840 5840 5840 5840 5841 5841 5841 5841 5841 5841 5841 5841 5841 5841 5841 5841 5840 5840 5840 5840 5839 5839 5839 5839 5839 5839 5839 5839 5839 5839 5839 5839 5839 5839 5839
5832 5833 5834 5834 5834 5835 5836 5836 5836 5836 5837 5837 5837 5837 5838 5838 5838 5838 5838 5838 5839 5839 5839 5839 5839 5839 5839 5839 5838 5838 5838 5838 5837 5837 5837 5837 5836 5836 5836 5836 5836 5836 5836 5836 5836 5836 5836 5836 5836
5830 5831 5832 5832 5832 5833 5835 5835 5834 5834 5835 5835 5835 5835 5835 5835 5835 5836 5836 5836 5836 5836 5836 5836 5836 5836 5836 5836 5836 5835 5835 5835 5835 5834 5834 5834 5833 5833 5833 5833 5833 5833 5833 5832 5832 5833 5832 5832 5832
5828 5829 5829 5830 5830 5830 5831 5832 5832 5832 5833 5833 5833 5833 5833 5833 5833 5833 5833 5833 5833 5834 5834 5833 5833 5833 5833 5833 5833 5832 5832 5832 5831 5831 5831 5830 5830 5830 5830 5829 5829 5829 5829 5829 5829 5829 5829 5829 5829
5826 5827 5827 5827 5827 5828 5829 5829 5830 5830 5830 5830 5830 5831 5830 5830 5830 5830 5830 5830 5831 5831 5831 5831 5830 5830 5830 5830 5830 5829 5829 5828 5828 5828 5827 5827 5826 5826 5826 5826 5825 5825 5825 5825 5825 5825 5825 5825 5825
5823 5824 5825 5825 5825 5825 5826 5827 5827 5827 5827 5828 5828 5828 5828 5827 5827 5827 5827 5827 5827 5827 5828 5827 5827 5827 5827 5827 5826 5826 5825 5825 5824 5824 5824 5823 5823 5822 5822 5822 5821 5821 5821 5821 5821 5821 5821 5821 5821
5820 5821 5822 5823 5823 5823 5823 5824 5824 5825 5825 5825 5825 5825 5825 5824 5824 5824 5824 5824 5824 5824 5824 5824 5823 5823 5823 5823 5822 5822 5822 5821 5821 5820 5820 5819 5819 5818 5818 5817 5817 5817 5817 5817 5816 5816 5816 5816 5817
5818 5819 5820 5820 5820 5820 5821 5822 5822 5822 5822 5822 5822 5822 5822 5821 5821 5821 5821 5821 5821 5820 5820 5820 5820 5819 5819 5819 5819 5818 5818 5817 5817 5816 5815 5815 5814 5814 5813 5813 5813 5812 5812 5812 5812 5812 5812 5812 5812
5815 5816 5817 5817 5817 5818 5819 5819 5820 5819 5819 5819 5819 5819 5819 5818 5818 5818 5818 5818 5817 5817 5816 5816 5816 5816 5815 5815 5814 5814 5814 5813 5812 5812 5811 5810 5810 5809 5809 5808 5808 5807 5807 5807 5807 5807 5807 5807 5807
5813 5813 5814 5814 5814 5815 5815 5816 5818 5816 5816 5816 5816 5816 5816 5815 5815 5814 5814 5814 5814 5813 5813 5812 5812 5812 5811 5811 5810 5810 5809 5809 5808 5807 5807 5806 5805 5804 5804 5803 5803 5802 5802 5802 5802 5802 5802 5802 5802
5810 5810 5811 5811 5811 5812 5812 5813 5814 5814 5814 5814 5813 5813 5812 5812 5812 5811 5811 5811 5810 5810 5809 5809 5808 5808 5807 5807 5806 5806 5805 5804 5804 5803 5802 5801 5800 5799 5799 5798 5797 5797 5797 5797 5796 5796 5796 5796 5796
5807 5807 5808 5807 5808 5809 5809 5809 5811 5811 5810 5810 5810 5809 5809 5808 5808 5808 5807 5807 5807 5806 5806 5805 5804 5804 5803 5802 5802 5801 5801 5800 5799 5798 5797 5796 5795 5794 5793 5792 5792 5791 5791 5791 5791 5790 5790 5790 5790
5803 5804 5805 5805 5805 5805 5805 5806 5808 5807 5806 5806 5806 5806 5805 5805 5805 5804 5804 5804 5803 5802 5802 5801 5800 5800 5799 5798 5797 5797 5796 5795 5794 5793 5792 5791 5790 5789 5787 5787 5786 5785 5785 5785 5784 5784 5784 5784 5784
5799 5800 5801 5801 5801 5801 5802 5803 5804 5803 5803 5802 5802 5802 5802 5801 5801 5800 5800 5800 5799 5799 5798 5797 5796 5795 5794 5793 5793 5792 5791 5790 5789 5787 5786 5785 5784 5783 5781 5780 5780 5779 5779 5778 5778 5778 5778 5778 5778
5796 5797 5797 5797 5796 5797 5798 5799 5800 5799 5799 5799 5799 5798 5798 5798 5797 5796 5796 5796 5795 5795 5794 5793 5792 5791 5790 5789 5788 5787 5785 5784 5783 5781 5780 5779 5778 5776 5775 5774 5773 5773 5772 5772 5772 5772 5772 5772 5772
5792 5793 5793 5793 5793 5793 5793 5797 5796 5795 5795 5795 5795 5795 5794 5794 5793 5793 5792 5792 5791 5790 5789 5788 5787 5786 5785 5784 5782 5781 5780 5778 5777 5775 5774 5773 5771 5770 5769 5768 5767 5766 5766 5765 5765 5765 5765 5765 5766
5788 5788 5789 5789 5789 5788 5789 5794 5791 5791 5791 5791 5791 5791 5790 5790 5789 5789 5788 5787 5786 5786 5785 5784 5782 5781 5780 5778 5777 5776 5774 5772 5771 5769 5768 5766 5765 5763 5762 5761 5760 5760 5759 5758 5758 5758 5758 5758 5759